Main page
METAR-TAF:

METAR-TAF

Airports :

RAF Kinloss

Kinloss, Scotland

latitude: 57-39N, longitude: 003-34W, elevation: 7 m

Current weather observation

The report was made 1 hour and 0 minutes ago, at 06:50 UTC
Wind 7 kt from the South
Temperature 15°C
Humidity 72%
Pressure 988 hPa
Visibility 10 km or more

METAR: EGQK 180650Z AUTO 18007KT 9999 FEW050/// 15/10 Q0988

Time: 08:50 (07:50 UTC)


TAF: missing

Weather observations and forecasts of more than 4000 airports (METAR and TAF reports).

The available stations are represented by yellow and red dots on the map.

Hover mouse over dot to see the name of the station.

Then click to see weather observations and forecasts.

To change the map : click on the green buttons with a black cross to zoom in, on the green button with a dash to zoom out, or on the green arrows for adjacent maps.


METAR-TAF: